Weather reports worldwide

Advertisment
Napoli/Capodichino, Italy (16289): temperature & dewpoint: 29.07.2020 15:00:00 - 04.08.2020 15:00:00 (CEST)Napoli/Capodichino, Italy (16289): wind speed: 29.07.2020 15:00:00 - 04.08.2020 15:00:00 (CEST)Napoli/Capodichino, Italy (16289): wind direction: 29.07.2020 15:00:00 - 04.08.2020 15:00:00 (CEST)Napoli/Capodichino, Italy (16289): reduced air pressure: 29.07.2020 15:00:00 - 04.08.2020 15:00:00 (CEST)Napoli/Capodichino, Italy (16289): visibility: 29.07.2020 15:00:00 - 04.08.2020 15:00:00 (CEST)Napoli/Capodichino, Italy (16289): precipitation: 29.07.2020 15:00:00 - 04.08.2020 15:00:00 (CEST)
Date & Time tt [°C] td [°C] ff [km/h] ff [kn] dd ppp [hPa] vv [km] rr [mm]
04.08.2020 15:00:00 28,0 15,0 26 14 W - 10 -
04.08.2020 14:00:00 28,7 16,6 18 10 WSW 1008,0 10 -
04.08.2020 13:00:00 28,0 17,0 15 8 SSW - 10 -
04.08.2020 12:00:00 27,0 17,0 18 10 W - 10 -
04.08.2020 11:00:00 26,8 16,9 13 7 W 1007,9 10 0,0
04.08.2020 10:00:00 27,0 19,0 9 5 W - 10 -
04.08.2020 09:00:00 26,0 20,0 11 6 W - 10 -
04.08.2020 08:00:00 25,9 19,8 4 2 - 1007,2 10 -
04.08.2020 07:00:00 24,0 20,0 5 3 SSW - 10 -
04.08.2020 06:00:00 24,0 20,0 8 4 NW - 10 -
04.08.2020 05:00:00 23,5 20,4 8 4 W 1007,3 10 0,0
04.08.2020 04:00:00 22,0 19,0 15 8 WSW - 8 -
04.08.2020 03:00:00 26,0 19,0 8 4 SW - 10 -
04.08.2020 02:00:00 25,9 17,6 9 5 WSW 1008,8 10 -
04.08.2020 01:00:00 25,0 19,0 13 7 W - 10 -
04.08.2020 00:00:00 26,0 20,0 8 4 WSW - 10 -
03.08.2020 23:00:00 26,7 22,6 4 2 - 1007,6 10 0,0
03.08.2020 22:00:00 27,0 22,0 13 7 W - 10 -
03.08.2020 21:00:00 27,0 23,0 8 4 SSW - 10 -
03.08.2020 20:00:00 27,8 23,0 8 4 S 1006,8 10 -
03.08.2020 19:00:00 29,0 22,0 9 5 SW - 10 -
03.08.2020 18:00:00 30,0 22,0 22 12 W - 10 -
03.08.2020 17:00:00 30,2 22,5 16 9 SW 1007,3 10 0,0
03.08.2020 16:00:00 31,0 22,0 16 9 SSW - 10 -
03.08.2020 15:00:00 32,0 17,0 21 11 SW - 10 -
03.08.2020 14:00:00 30,5 22,2 15 8 SSW 1008,6 10 -
03.08.2020 13:00:00 31,0 18,0 15 8 SSW - 10 -
03.08.2020 12:00:00 31,0 20,0 11 6 SSW - 10 -
03.08.2020 11:00:00 30,6 19,8 8 4 SSW 1009,7 10 0,0
03.08.2020 10:00:00 29,0 21,0 4 2 - - 10 -
03.08.2020 09:00:00 28,0 22,0 4 2 - - 10 -
03.08.2020 08:00:00 26,2 21,0 5 3 NE 1010,0 10 -
03.08.2020 07:00:00 24,0 20,0 4 2 E - 10 -
03.08.2020 06:00:00 24,0 20,0 2 1 - - 10 -
03.08.2020 05:00:00 24,2 20,0 4 2 - 1009,7 10 0,0
03.08.2020 04:00:00 25,0 20,0 8 4 E - 10 -
03.08.2020 03:00:00 25,0 21,0 4 2 E - 10 -
03.08.2020 02:00:00 25,4 20,2 4 2 ENE 1010,7 10 -
03.08.2020 01:00:00 27,0 20,0 4 2 E - 10 -
03.08.2020 00:00:00 26,0 21,0 2 1 - - 10 -
02.08.2020 23:00:00 26,9 21,3 4 2 - 1010,7 10 0,0
02.08.2020 22:00:00 27,0 21,0 4 2 - - 10 -
02.08.2020 21:00:00 28,0 21,0 4 2 - - 10 -
02.08.2020 20:00:00 29,0 21,2 8 4 S 1010,4 10 -
02.08.2020 19:00:00 31,0 20,0 9 5 SSW - 10 -
02.08.2020 18:00:00 31,0 23,0 9 5 S - 10 -
02.08.2020 17:00:00 30,8 23,9 16 9 SSW 1010,8 10 0,0
02.08.2020 16:00:00 31,0 24,0 15 8 SSW - 10 -
02.08.2020 15:00:00 31,0 23,0 15 8 SSW - 10 -
02.08.2020 14:00:00 31,7 22,1 18 10 SW 1011,4 10 -
02.08.2020 13:00:00 31,0 22,0 15 8 SSW - 10 -
02.08.2020 12:00:00 31,0 22,0 11 6 S - 10 -
02.08.2020 11:00:00 30,4 21,2 8 4 S 1011,8 10 0,0
02.08.2020 10:00:00 30,0 19,0 4 2 - - 10 -
02.08.2020 09:00:00 28,0 18,0 4 2 - - 10 -
02.08.2020 08:00:00 25,5 18,1 8 4 NE 1011,1 10 -
02.08.2020 07:00:00 24,0 18,0 5 3 N - 10 -
02.08.2020 06:00:00 23,0 19,0 5 3 NE - 10 -
02.08.2020 05:00:00 23,8 19,2 9 5 NE 1010,8 10 0,0
02.08.2020 04:00:00 25,0 20,0 5 3 N - 10 -
02.08.2020 03:00:00 24,0 19,0 2 1 - - 10 -
02.08.2020 02:00:00 24,6 19,6 5 3 ENE 1012,1 10 -
02.08.2020 01:00:00 26,0 20,0 5 3 ENE - 10 -
02.08.2020 00:00:00 27,0 21,0 8 4 NNW - 10 -
01.08.2020 23:00:00 27,6 19,0 4 2 - 1012,0 10 0,0
01.08.2020 22:00:00 27,0 19,0 8 4 ENE - 10 -
01.08.2020 21:00:00 28,0 18,0 5 3 NE - 10 -
01.08.2020 20:00:00 28,0 19,0 9 5 NE 1012,6 10 -
01.08.2020 19:00:00 27,0 20,0 9 5 ESE - 10 -
01.08.2020 18:00:00 30,0 24,0 11 6 S - 10 -
01.08.2020 17:00:00 31,7 24,1 13 7 SSW 1011,4 10 0,0
01.08.2020 16:00:00 31,0 23,0 15 8 SSW - 10 -
01.08.2020 15:00:00 31,0 23,0 15 8 SSW - 10 -
01.08.2020 14:00:00 30,6 22,6 15 8 SSW 1013,1 10 -
01.08.2020 13:00:00 31,0 23,0 13 7 SSW - 10 -
01.08.2020 12:00:00 31,0 23,0 9 5 SSW - 10 -
01.08.2020 11:00:00 30,1 22,2 9 5 S 1014,2 10 0,0
01.08.2020 10:00:00 29,0 22,0 8 4 SSW - 10 -
01.08.2020 09:00:00 28,0 23,0 5 3 SSW - 10 -
01.08.2020 08:00:00 25,1 21,9 4 2 - 1014,5 10 -
01.08.2020 07:00:00 25,0 22,0 8 4 E - 10 -
01.08.2020 06:00:00 26,0 23,0 5 3 NW - 10 -
01.08.2020 05:00:00 24,8 22,5 8 4 W 1014,3 10 0,0
01.08.2020 04:00:00 25,0 22,0 5 3 W - 10 -
01.08.2020 03:00:00 26,0 23,0 4 2 - - 10 -
01.08.2020 02:00:00 25,8 23,0 5 3 SSW 1015,0 10 -
01.08.2020 01:00:00 26,0 23,0 8 4 SW - 10 -
01.08.2020 00:00:00 27,0 23,0 5 3 SSW - 10 -
31.07.2020 23:00:00 26,9 21,3 5 3 SSW 1015,9 10 0,0
31.07.2020 22:00:00 27,0 23,0 8 4 SSW - 10 -
31.07.2020 21:00:00 29,0 18,0 5 3 WSW - 10 -
31.07.2020 20:00:00 29,5 18,4 13 7 W 1015,1 10 -
31.07.2020 19:00:00 31,0 23,0 9 5 SW - 10 -
31.07.2020 18:00:00 31,0 23,0 11 6 S - 10 -
31.07.2020 17:00:00 31,3 24,1 11 6 S 1014,9 10 0,0
31.07.2020 16:00:00 32,0 23,0 15 8 SSW - 10 -
31.07.2020 15:00:00 32,0 22,0 15 8 SSW - 10 -
31.07.2020 14:00:00 31,5 22,1 15 8 SSW 1015,9 10 -
31.07.2020 13:00:00 31,0 23,0 13 7 SSW - 10 -
31.07.2020 12:00:00 31,0 22,0 11 6 S - 10 -
31.07.2020 11:00:00 30,2 22,9 11 6 SSW 1016,9 10 0,0
31.07.2020 10:00:00 30,0 22,0 5 3 SSW - 10 -
31.07.2020 09:00:00 28,0 22,0 4 2 - - 10 -
31.07.2020 08:00:00 26,9 22,4 4 2 - 1016,8 10 -
31.07.2020 07:00:00 25,0 22,0 4 2 ENE - 10 -
31.07.2020 06:00:00 25,0 22,0 4 2 E - 10 -
31.07.2020 05:00:00 25,0 21,8 4 2 - 1016,8 10 0,0
31.07.2020 04:00:00 26,0 22,0 4 2 - - 10 -
31.07.2020 03:00:00 27,0 22,0 2 1 - - 10 -
31.07.2020 02:00:00 26,3 22,2 2 1 - 1017,2 10 -
31.07.2020 01:00:00 27,0 21,0 2 1 - - 10 -
31.07.2020 00:00:00 27,0 21,0 4 2 E - 10 -
30.07.2020 23:00:00 28,0 21,1 5 3 NNE 1017,4 10 0,0
30.07.2020 22:00:00 28,0 21,0 2 1 - - 10 -
30.07.2020 21:00:00 29,0 23,0 5 3 SW - 10 -
30.07.2020 20:00:00 29,6 22,1 8 4 S 1016,6 10 -
30.07.2020 19:00:00 31,0 23,0 8 4 S - 10 -
30.07.2020 18:00:00 32,0 22,0 11 6 SSW - 10 -
30.07.2020 17:00:00 31,5 23,3 13 7 S 1016,6 10 0,0
30.07.2020 16:00:00 32,0 23,0 15 8 SSW - 10 -
30.07.2020 15:00:00 32,0 20,0 15 8 SSW - 10 -
30.07.2020 14:00:00 31,7 20,4 15 8 SSW 1017,4 10 -
30.07.2020 13:00:00 31,0 22,0 13 7 SSW - 10 -
30.07.2020 12:00:00 31,0 22,0 13 7 SSW - 10 -
30.07.2020 11:00:00 30,7 21,9 8 4 S 1018,1 10 0,0
30.07.2020 10:00:00 30,0 20,0 8 4 SSW - 10 -
30.07.2020 09:00:00 28,0 20,0 5 3 S - 10 -
30.07.2020 08:00:00 27,5 19,7 2 1 - 1017,5 10 -
30.07.2020 07:00:00 25,0 19,0 4 2 - - 10 -
30.07.2020 06:00:00 25,0 19,0 2 1 NNE - 10 -
30.07.2020 05:00:00 24,3 19,3 2 1 - 1016,7 10 0,0
30.07.2020 04:00:00 - - - - - - - -
30.07.2020 03:00:00 25,0 18,0 0 0 N - 10 -
30.07.2020 02:00:00 25,4 17,5 2 1 - 1016,7 10 -
30.07.2020 01:00:00 26,0 17,0 2 1 - - 10 -
30.07.2020 00:00:00 27,0 17,0 2 1 - - 10 -
29.07.2020 23:00:00 27,7 17,3 8 4 NNW 1016,6 10 0,0
29.07.2020 22:00:00 28,0 17,0 5 3 N - 10 -
29.07.2020 21:00:00 29,0 18,0 11 6 NW - 10 -
29.07.2020 20:00:00 29,4 17,4 11 6 WNW 1015,7 10 -
29.07.2020 19:00:00 32,0 19,0 5 3 - - 10 -
29.07.2020 18:00:00 33,0 21,0 8 4 S - 10 -
29.07.2020 17:00:00 33,0 20,3 11 6 S 1015,6 10 0,0
29.07.2020 16:00:00 32,0 23,0 11 6 S - 10 -
29.07.2020 15:00:00 31,0 22,0 16 9 SSW - 10 -

tt = temperature
td = dewpoint
ff = wind speed
dd = wind direction
ppp = reduced air pressure
vv = visibility
rr = precipitation

Next stations